Location: Newark
(39.0900°N, 17.1600°E)
Time: 19:55:50
(UTC+00:00)

X-37B - Visible Passes

Search period start: 27 September 2020 00:00
Search period end: 07 October 2020 00:00
Orbit: 386 x 387 km, 45.0° (Epoch: 18 September)

Date Brightness Start Highest point End Pass type
(mag) Time Alt. Az. Time Alt. Az. Time Alt. Az.
30 Sep 2.5 17:55:48 10° SSW 17:57:11 18° S 17:57:11 18° S visible
01 Oct 2.8 18:32:54 10° WSW 18:34:08 21° SW 18:34:08 21° SW visible
02 Oct 1.2 17:34:35 10° SW 17:37:33 39° SSE 17:38:37 28° ESE visible
03 Oct 1.1 18:12:23 10° WSW 18:15:15 59° NW 18:15:15 59° NW visible
04 Oct 0.5 17:13:47 10° WSW 17:16:56 75° SSE 17:19:29 15° ENE visible
04 Oct 3.7 18:50:52 10° WNW 18:51:46 16° WNW 18:51:46 16° WNW visible
05 Oct 1.6 17:52:02 10° W 17:55:03 41° NNW 17:55:54 32° NNE visible
06 Oct 0.9 16:53:15 10° WSW 16:56:24 62° NNW 16:59:33 10° ENE visible
06 Oct 3.0 18:30:36 10° WNW 18:32:15 21° NW 18:32:15 21° NW visible
